Observations for Trim Market St
| Time | AQI | Temp °C | Hum % | Pres Pa | CO μg/m³ | H₂S μg/m³ | NO μg/m³ | NO₂ μg/m³ | O₃ μg/m³ | SO₂ μg/m³ | PM1 μg/m³ | PM2.5 μg/m³ | PM10 μg/m³ |
|---|---|---|---|---|---|---|---|---|---|---|---|---|---|
| Tuesday 11 August 2026 | |||||||||||||
| 18:58 | 3 | 30.5 | 28 | 66,292 | 0 | 18.66 | 0.52 | 36.44 | 63.84 | 0 | 2.14 | 5.03 | 5.53 |
| 18:56 | 3 | 30.6 | 28 | 66,274 | 0 | 17.72 | 0.54 | 36.7 | 60.8 | 0 | 1.43 | 4.49 | 4.94 |
| 18:49 | 3 | 30.9 | 27 | 66,244 | 0 | 15.29 | 0.51 | 27.4 | 64.33 | 0 | 2.14 | 5.61 | 6.17 |
| 18:48 | 3 | 30.9 | 27 | 66,264 | 0 | 14.16 | 0.51 | 26.19 | 63.52 | 0 | 2.14 | 5.61 | 6.17 |
| 18:47 | 3 | 30.9 | 27 | 66,262 | 0 | 14.91 | 0.49 | 22.4 | 64.92 | 0 | 1.43 | 4.52 | 4.98 |
| 18:46 | 3 | 30.9 | 27 | 66,290 | 0 | 16.47 | 0.5 | 27 | 64.03 | 0 | 2.14 | 5.08 | 5.58 |
| 18:45 | 3 | 31 | 27 | 66,292 | 0 | 16.62 | 0.47 | 25.48 | 63.6 | 0 | 0.71 | 5.08 | 5.58 |
| 18:44 | 3 | 31 | 27 | 66,297 | 0 | 17.16 | 0.49 | 27.94 | 63.85 | 0 | 1.43 | 4.53 | 4.99 |
| 18:43 | 3 | 31 | 27 | 66,303 | 0 | 19.42 | 0.49 | 32.36 | 62.42 | 0 | 1.43 | 4.54 | 4.99 |
| 18:42 | 3 | 31 | 27 | 66,307 | 0 | 18.58 | 0.49 | 27.06 | 63.63 | 0 | 2.14 | 4.54 | 5 |
| 18:41 | 3 | 31.1 | 27 | 66,315 | 0 | 20.91 | 0.48 | 32.3 | 61.79 | 0 | 2.85 | 5.64 | 6.64 |
| 18:40 | 3 | 31.1 | 27 | 66,325 | 0 | 21.67 | 0.49 | 32.1 | 62.7 | 0 | 2.14 | 5.1 | 5.61 |
| 18:39 | 3 | 31.1 | 26 | 66,307 | 0 | 21.5 | 0.48 | 30.16 | 62.29 | 0 | 1.43 | 5.65 | 6.22 |
| 18:38 | 3 | 31.2 | 26 | 66,311 | 0 | 23.27 | 0.5 | 35.67 | 61.24 | 0 | 1.43 | 5.11 | 5.62 |
| 18:37 | 3 | 31.3 | 26 | 66,319 | 0 | 18.51 | 0.5 | 29.04 | 65.07 | 0 | 1.43 | 5.12 | 5.63 |
| 18:36 | 3 | 31.3 | 26 | 66,331 | 0 | 16.58 | 0.49 | 25.71 | 66.58 | 0 | 1.43 | 4.57 | 5.03 |
| 18:34 | 3 | 31.4 | 26 | 66,345 | 0 | 20.71 | 0.47 | 26.88 | 63.72 | 0 | 2.14 | 6.22 | 6.85 |
| 18:32 | 3 | 31.5 | 26 | 66,353 | 0 | 19.6 | 0.47 | 23.82 | 65.39 | 0 | 2.14 | 6.24 | 6.63 |
| 18:30 | 3 | 31.6 | 26 | 66,374 | 0 | 17.42 | 0.48 | 23.37 | 64.12 | 0 | 2.85 | 6.25 | 6.87 |
| 18:29 | 3 | 31.7 | 26 | 66,368 | 0 | 17.87 | 0.47 | 30.28 | 60.34 | 0 | 2.85 | 5.7 | 6.27 |